Time,TemperatureF,DewpointF,PressureIn,WindDirection,WindDirectionDegrees,WindSpeedMPH,WindSpeedGustMPH,Humidity,HourlyPrecipIn,Conditions,Clouds,dailyrainin,SolarRadiationWatts/m^2,SoftwareType,DateUTC
2013-01-12 00:12:00,24.0,24.0,-100.00,NNW,345,0.0,1.0,100,0.00,,,0.00,0.000000,,2013-01-12 09:12:00,
2013-01-12 00:22:00,24.0,24.0,-100.00,NNW,345,0.0,1.0,100,0.00,,,0.00,0.000000,,2013-01-12 09:22:00,
2013-01-12 00:32:00,24.0,24.0,-100.00,NNW,345,0.0,1.0,100,0.00,,,0.00,0.000000,,2013-01-12 09:32:00,
2013-01-12 00:42:00,24.0,24.0,-100.00,NNW,345,0.0,1.0,100,0.00,,,0.00,0.000000,,2013-01-12 09:42:00,
2013-01-12 00:52:00,24.0,24.0,-100.00,NNW,345,0.0,1.0,100,0.00,,,0.00,0.000000,,2013-01-12 09:52:00,
2013-01-12 01:11:00,24.0,24.0,-100.00,NNW,338,1.0,4.0,100,0.00,,,0.00,0.000000,,2013-01-12 10:11:00,
2013-01-12 01:22:00,24.0,24.0,-100.00,NNW,338,1.0,4.0,100,0.00,,,0.00,0.000000,,2013-01-12 10:22:00,
2013-01-12 01:32:00,24.0,24.0,-100.00,NNW,338,1.0,4.0,100,0.00,,,0.00,0.000000,,2013-01-12 10:32:00,
2013-01-12 01:42:00,24.0,24.0,-100.00,NNW,338,1.0,4.0,100,0.00,,,0.00,0.000000,,2013-01-12 10:42:00,
2013-01-12 01:52:00,24.0,24.0,-100.00,NNW,338,1.0,4.0,100,0.00,,,0.00,0.000000,,2013-01-12 10:52:00,
2013-01-12 02:12:00,25.0,25.0,-100.00,North,352,0.0,3.0,100,0.00,,,0.00,0.000000,,2013-01-12 11:12:00,
2013-01-12 02:22:00,25.0,25.0,-100.00,North,352,0.0,3.0,100,0.00,,,0.00,0.000000,,2013-01-12 11:22:00,
2013-01-12 02:32:00,25.0,25.0,-100.00,North,352,0.0,3.0,100,0.00,,,0.00,0.000000,,2013-01-12 11:32:00,
2013-01-12 02:42:00,25.0,25.0,-100.00,North,352,0.0,3.0,100,0.00,,,0.00,0.000000,,2013-01-12 11:42:00,
2013-01-12 02:52:00,25.0,25.0,-100.00,North,352,0.0,3.0,100,0.00,,,0.00,0.000000,,2013-01-12 11:52:00,
2013-01-12 03:12:00,25.0,25.0,-100.00,West,263,0.0,3.0,100,0.00,,,0.00,0.000000,,2013-01-12 12:12:00,
2013-01-12 03:22:00,25.0,25.0,-100.00,West,263,0.0,3.0,100,0.00,,,0.00,0.000000,,2013-01-12 12:22:00,
2013-01-12 03:32:00,25.0,25.0,-100.00,West,263,0.0,3.0,100,0.00,,,0.00,0.000000,,2013-01-12 12:32:00,
2013-01-12 03:42:00,25.0,25.0,-100.00,West,263,0.0,3.0,100,0.00,,,0.00,0.000000,,2013-01-12 12:42:00,
2013-01-12 03:52:00,25.0,25.0,-100.00,West,263,0.0,3.0,100,0.00,,,0.00,0.000000,,2013-01-12 12:52:00,
2013-01-12 04:12:00,24.0,24.0,-100.00,North,0,0.0,2.0,100,0.00,,,0.00,0.000000,,2013-01-12 13:12:00,
2013-01-12 04:22:00,24.0,24.0,-100.00,North,0,0.0,2.0,100,0.00,,,0.00,0.000000,,2013-01-12 13:22:00,
2013-01-12 04:32:00,24.0,24.0,-100.00,North,0,0.0,2.0,100,0.00,,,0.00,0.000000,,2013-01-12 13:32:00,
2013-01-12 04:42:00,24.0,24.0,-100.00,North,0,0.0,2.0,100,0.00,,,0.00,0.000000,,2013-01-12 13:42:00,
2013-01-12 04:52:00,24.0,24.0,-100.00,North,0,0.0,2.0,100,0.00,,,0.00,0.000000,,2013-01-12 13:52:00,
2013-01-12 05:12:00,25.0,25.0,-100.00,NW,313,0.0,3.0,100,0.00,,,0.00,0.000000,,2013-01-12 14:12:00,
2013-01-12 05:22:00,25.0,25.0,-100.00,NW,313,0.0,3.0,100,0.00,,,0.00,0.000000,,2013-01-12 14:22:00,
2013-01-12 05:32:00,25.0,25.0,-100.00,NW,313,0.0,3.0,100,0.00,,,0.00,0.000000,,2013-01-12 14:32:00,
2013-01-12 05:43:00,25.0,25.0,-100.00,NW,313,0.0,3.0,100,0.00,,,0.00,0.000000,,2013-01-12 14:43:00,
2013-01-12 05:53:00,25.0,25.0,-100.00,NW,313,0.0,3.0,100,0.00,,,0.00,0.000000,,2013-01-12 14:53:00,
2013-01-12 06:22:00,26.0,26.0,-100.00,NNW,335,0.0,2.0,100,0.00,,,0.00,0.000000,,2013-01-12 15:22:00,
2013-01-12 06:33:00,26.0,26.0,-100.00,NNW,335,0.0,2.0,100,0.00,,,0.00,0.000000,,2013-01-12 15:33:00,
2013-01-12 06:42:00,26.0,26.0,-100.00,NNW,335,0.0,2.0,100,0.00,,,0.00,0.000000,,2013-01-12 15:42:00,
2013-01-12 06:52:00,26.0,26.0,-100.00,NNW,335,0.0,2.0,100,0.00,,,0.00,0.000000,,2013-01-12 15:52:00,
2013-01-12 07:12:00,28.0,28.0,-100.00,North,6,0.0,4.0,100,0.00,,,0.00,0.000000,,2013-01-12 16:12:00,
2013-01-12 07:23:00,28.0,28.0,-100.00,North,6,0.0,4.0,100,0.00,,,0.00,0.000000,,2013-01-12 16:23:00,
2013-01-12 07:32:00,28.0,28.0,-100.00,North,6,0.0,4.0,100,0.00,,,0.00,0.000000,,2013-01-12 16:32:00,
2013-01-12 07:42:00,28.0,28.0,-100.00,North,6,0.0,4.0,100,0.00,,,0.00,0.000000,,2013-01-12 16:42:00,
2013-01-12 07:52:00,28.0,28.0,-100.00,North,6,0.0,4.0,100,0.00,,,0.00,0.000000,,2013-01-12 16:52:00,
2013-01-12 08:12:00,27.0,27.0,-100.00,North,350,0.0,3.0,100,0.00,,,0.00,0.000000,,2013-01-12 17:12:00,
2013-01-12 08:22:00,27.0,27.0,-100.00,North,350,0.0,3.0,100,0.00,,,0.00,0.000000,,2013-01-12 17:22:00,
2013-01-12 08:32:00,27.0,27.0,-100.00,North,350,0.0,3.0,100,0.00,,,0.00,0.000000,,2013-01-12 17:32:00,
2013-01-12 08:42:00,27.0,27.0,-100.00,North,350,0.0,3.0,100,0.00,,,0.00,0.000000,,2013-01-12 17:42:00,
2013-01-12 08:52:00,27.0,27.0,-100.00,North,350,0.0,3.0,100,0.00,,,0.00,0.000000,,2013-01-12 17:52:00,
2013-01-12 09:12:00,33.0,33.0,-100.00,NE,43,1.0,9.0,100,-99.99,,,-99.99,0.000000,,2013-01-12 18:12:00,
2013-01-12 09:22:00,33.0,33.0,-100.00,NE,43,1.0,9.0,100,-99.99,,,-99.99,0.000000,,2013-01-12 18:22:00,
2013-01-12 09:33:00,33.0,33.0,-100.00,NE,43,1.0,9.0,100,-99.99,,,-99.99,0.000000,,2013-01-12 18:33:00,
2013-01-12 09:42:00,33.0,33.0,-100.00,NE,43,1.0,9.0,100,-99.99,,,-99.99,0.000000,,2013-01-12 18:42:00,
2013-01-12 09:52:00,33.0,33.0,-100.00,NE,43,1.0,9.0,100,-99.99,,,-99.99,0.000000,,2013-01-12 18:52:00,
2013-01-12 10:12:00,35.0,35.0,-100.00,ENE,61,1.0,7.0,100,0.00,,,0.00,0.000000,,2013-01-12 19:12:00,
2013-01-12 10:22:00,35.0,35.0,-100.00,ENE,61,1.0,7.0,100,0.00,,,0.00,0.000000,,2013-01-12 19:22:00,
2013-01-12 10:32:00,35.0,35.0,-100.00,ENE,61,1.0,7.0,100,0.00,,,0.00,0.000000,,2013-01-12 19:32:00,
2013-01-12 10:42:00,35.0,35.0,-100.00,ENE,61,1.0,7.0,100,0.00,,,0.00,0.000000,,2013-01-12 19:42:00,
2013-01-12 10:52:00,35.0,35.0,-100.00,ENE,61,1.0,7.0,100,0.00,,,0.00,0.000000,,2013-01-12 19:52:00,
2013-01-12 11:12:00,36.0,33.0,-100.00,ESE,102,3.0,11.0,89,0.00,,,0.00,1.000000,,2013-01-12 20:12:00,
2013-01-12 11:22:00,36.0,33.0,-100.00,ESE,102,3.0,11.0,89,0.00,,,0.00,1.000000,,2013-01-12 20:22:00,
2013-01-12 11:32:00,36.0,33.0,-100.00,ESE,102,3.0,11.0,89,0.00,,,0.00,1.000000,,2013-01-12 20:32:00,
2013-01-12 11:42:00,36.0,33.0,-100.00,ESE,102,3.0,11.0,89,0.00,,,0.00,1.000000,,2013-01-12 20:42:00,
2013-01-12 11:52:00,36.0,33.0,-100.00,ESE,102,3.0,11.0,89,0.00,,,0.00,1.000000,,2013-01-12 20:52:00,
2013-01-12 12:22:00,36.0,35.0,-100.00,East,95,2.0,7.0,97,0.00,,,0.00,8.000000,,2013-01-12 21:22:00,
2013-01-12 12:32:00,36.0,35.0,-100.00,East,95,2.0,7.0,97,0.00,,,0.00,8.000000,,2013-01-12 21:32:00,
2013-01-12 12:42:00,36.0,35.0,-100.00,East,95,2.0,7.0,97,0.00,,,0.00,8.000000,,2013-01-12 21:42:00,
2013-01-12 12:52:00,36.0,35.0,-100.00,East,95,2.0,7.0,97,0.00,,,0.00,8.000000,,2013-01-12 21:52:00,
2013-01-12 13:22:00,37.0,36.0,-100.00,SSE,153,3.0,13.0,98,0.00,,,0.00,14.000000,,2013-01-12 22:22:00,
2013-01-12 13:32:00,37.0,36.0,-100.00,SSE,153,3.0,13.0,98,0.00,,,0.00,14.000000,,2013-01-12 22:32:00,
2013-01-12 13:43:00,37.0,36.0,-100.00,SSE,153,3.0,13.0,98,0.00,,,0.00,14.000000,,2013-01-12 22:43:00,
2013-01-12 13:52:00,37.0,36.0,-100.00,SSE,153,3.0,13.0,98,0.00,,,0.00,14.000000,,2013-01-12 22:52:00,
2013-01-12 14:12:00,38.0,34.0,-100.00,East,84,6.0,16.0,84,0.12,,,0.12,7.000000,,2013-01-12 23:12:00,
2013-01-12 14:22:00,38.0,34.0,-100.00,East,84,6.0,16.0,84,0.12,,,0.12,7.000000,,2013-01-12 23:22:00,
2013-01-12 14:32:00,38.0,34.0,-100.00,East,84,6.0,16.0,84,0.12,,,0.12,7.000000,,2013-01-12 23:32:00,
2013-01-12 14:42:00,38.0,34.0,-100.00,East,84,6.0,16.0,84,0.12,,,0.12,7.000000,,2013-01-12 23:42:00,
2013-01-12 14:52:00,38.0,34.0,-100.00,East,84,6.0,16.0,84,0.12,,,0.12,7.000000,,2013-01-12 23:52:00,
2013-01-12 15:12:00,38.0,36.0,-100.00,ENE,68,5.0,16.0,92,0.10,,,0.22,4.000000,,2013-01-13 00:12:00,
2013-01-12 15:22:00,38.0,36.0,-100.00,ENE,68,5.0,16.0,92,0.10,,,0.22,4.000000,,2013-01-13 00:22:00,
2013-01-12 15:32:00,38.0,36.0,-100.00,ENE,68,5.0,16.0,92,0.10,,,0.22,4.000000,,2013-01-13 00:32:00,
2013-01-12 15:42:00,38.0,36.0,-100.00,ENE,68,5.0,16.0,92,0.10,,,0.22,4.000000,,2013-01-13 00:42:00,
2013-01-12 15:52:00,38.0,36.0,-100.00,ENE,68,5.0,16.0,92,0.10,,,0.22,4.000000,,2013-01-13 00:52:00,
2013-01-12 16:12:00,39.0,34.0,-100.00,ENE,65,5.0,18.0,83,0.01,,,0.23,4.000000,,2013-01-13 01:12:00,
2013-01-12 16:22:00,39.0,34.0,-100.00,ENE,65,5.0,18.0,83,0.01,,,0.23,4.000000,,2013-01-13 01:22:00,
2013-01-12 16:32:00,39.0,34.0,-100.00,ENE,65,5.0,18.0,83,0.01,,,0.23,4.000000,,2013-01-13 01:32:00,
2013-01-12 16:42:00,39.0,34.0,-100.00,ENE,65,5.0,18.0,83,0.01,,,0.23,4.000000,,2013-01-13 01:42:00,
2013-01-12 16:52:00,39.0,34.0,-100.00,ENE,65,5.0,18.0,83,0.01,,,0.23,4.000000,,2013-01-13 01:52:00,
2013-01-12 17:12:00,38.0,34.0,-100.00,ENE,60,5.0,19.0,86,0.04,,,0.27,0.000000,,2013-01-13 02:12:00,
2013-01-12 17:22:00,38.0,34.0,-100.00,ENE,60,5.0,19.0,86,0.04,,,0.27,0.000000,,2013-01-13 02:22:00,
2013-01-12 17:32:00,38.0,34.0,-100.00,ENE,60,5.0,19.0,86,0.04,,,0.27,0.000000,,2013-01-13 02:32:00,
2013-01-12 17:42:00,38.0,34.0,-100.00,ENE,60,5.0,19.0,86,0.04,,,0.27,0.000000,,2013-01-13 02:42:00,
2013-01-12 17:52:00,38.0,34.0,-100.00,ENE,60,5.0,19.0,86,0.04,,,0.27,0.000000,,2013-01-13 02:52:00,
2013-01-12 18:22:00,38.0,35.0,-100.00,ENE,70,8.0,16.0,88,0.01,,,0.28,0.000000,,2013-01-13 03:22:00,
2013-01-12 18:32:00,38.0,35.0,-100.00,ENE,70,8.0,16.0,88,0.01,,,0.28,0.000000,,2013-01-13 03:32:00,
2013-01-12 18:42:00,38.0,35.0,-100.00,ENE,70,8.0,16.0,88,0.01,,,0.28,0.000000,,2013-01-13 03:42:00,
2013-01-12 18:52:00,38.0,35.0,-100.00,ENE,70,8.0,16.0,88,0.01,,,0.28,0.000000,,2013-01-13 03:52:00,
2013-01-12 19:12:00,38.0,33.0,-100.00,ENE,61,5.0,16.0,81,0.00,,,0.28,0.000000,,2013-01-13 04:12:00,
2013-01-12 19:22:00,38.0,33.0,-100.00,ENE,61,5.0,16.0,81,0.00,,,0.28,0.000000,,2013-01-13 04:22:00,
2013-01-12 19:32:00,38.0,33.0,-100.00,ENE,61,5.0,16.0,81,0.00,,,0.28,0.000000,,2013-01-13 04:32:00,
2013-01-12 19:42:00,38.0,33.0,-100.00,ENE,61,5.0,16.0,81,0.00,,,0.28,0.000000,,2013-01-13 04:42:00,
2013-01-12 19:52:00,38.0,33.0,-100.00,ENE,61,5.0,16.0,81,0.00,,,0.28,0.000000,,2013-01-13 04:52:00,
2013-01-12 20:12:00,38.0,34.0,-100.00,ENE,65,5.0,14.0,84,0.01,,,0.29,0.000000,,2013-01-13 05:12:00,
2013-01-12 20:22:00,38.0,34.0,-100.00,ENE,65,5.0,14.0,84,0.01,,,0.29,0.000000,,2013-01-13 05:22:00,
2013-01-12 20:32:00,38.0,34.0,-100.00,ENE,65,5.0,14.0,84,0.01,,,0.29,0.000000,,2013-01-13 05:32:00,
2013-01-12 20:42:00,38.0,34.0,-100.00,ENE,65,5.0,14.0,84,0.01,,,0.29,0.000000,,2013-01-13 05:42:00,
2013-01-12 20:52:00,38.0,34.0,-100.00,ENE,65,5.0,14.0,84,0.01,,,0.29,0.000000,,2013-01-13 05:52:00,
2013-01-12 21:12:00,38.0,36.0,-100.00,NE,55,5.0,14.0,92,0.05,,,0.34,0.000000,,2013-01-13 06:12:00,
2013-01-12 21:22:00,38.0,36.0,-100.00,NE,55,5.0,14.0,92,0.05,,,0.34,0.000000,,2013-01-13 06:22:00,
2013-01-12 21:32:00,38.0,36.0,-100.00,NE,55,5.0,14.0,92,0.05,,,0.34,0.000000,,2013-01-13 06:32:00,
2013-01-12 21:42:00,38.0,36.0,-100.00,NE,55,5.0,14.0,92,0.05,,,0.34,0.000000,,2013-01-13 06:42:00,
2013-01-12 21:52:00,38.0,36.0,-100.00,NE,55,5.0,14.0,92,0.05,,,0.34,0.000000,,2013-01-13 06:52:00,
2013-01-12 22:22:00,39.0,32.0,-100.00,ENE,57,4.0,17.0,76,0.01,,,0.35,0.000000,,2013-01-13 07:22:00,
2013-01-12 22:32:00,39.0,32.0,-100.00,ENE,57,4.0,17.0,76,0.01,,,0.35,0.000000,,2013-01-13 07:32:00,
2013-01-12 22:42:00,39.0,32.0,-100.00,ENE,57,4.0,17.0,76,0.01,,,0.35,0.000000,,2013-01-13 07:42:00,
2013-01-12 22:52:00,39.0,32.0,-100.00,ENE,57,4.0,17.0,76,0.01,,,0.35,0.000000,,2013-01-13 07:52:00,
2013-01-12 23:12:00,41.0,33.0,-100.00,ENE,63,6.0,18.0,74,0.00,,,0.35,0.000000,,2013-01-13 08:12:00,
2013-01-12 23:22:00,41.0,33.0,-100.00,ENE,63,6.0,18.0,74,0.00,,,0.35,0.000000,,2013-01-13 08:22:00,
2013-01-12 23:32:00,41.0,33.0,-100.00,ENE,63,6.0,18.0,74,0.00,,,0.35,0.000000,,2013-01-13 08:32:00,
2013-01-12 23:42:00,41.0,33.0,-100.00,ENE,63,6.0,18.0,74,0.00,,,0.35,0.000000,,2013-01-13 08:42:00,
2013-01-12 23:52:00,41.0,33.0,-100.00,ENE,63,6.0,18.0,74,0.00,,,0.35,0.000000,,2013-01-13 08:52:00,